Regional Weather Roundup
Issued by NWS

Home | Current Version | Previous Version | Graphics & Text | Print | Product List | Glossary On
Versions: 1 2 3 4 5 6 7 8 9 10 11 12 13 14 15 16 17 18 19 20 21 22 23 24 25 26 27
000
ASUS45 KCYS 150210
RWRWY

WYOMING REGIONAL WEATHER ROUNDUP
NATIONAL WEATHER SERVICE CHEYENNE WY
800 PM MDT MON APR 14 2014

NOTE:  "FAIR" INDICATES FEW OR NO CLOUDS BELOW 12,000 FEET
WITH NO SIGNIFICANT WEATHER AND/OR OBSTRUCTIONS TO VISIBILITY.

WYZ001-150300-
YELLOWSTONE NATIONAL PARK

CITY           SKY/WX    TMP DP  RH WIND       PRES   REMARKS
LK YELLOWSTONE   N/A     31   5  33 W3        30.13F
W YELLOWSTONE  NOT AVBL

$$
WYZ002>013-054>058-071-098>099-150300-
NORTHERN WYOMING

CITY           SKY/WX    TMP DP  RH WIND       PRES   REMARKS
JACKSON        CLEAR     39  10  30 MISG      30.12F
CODY           CLEAR     45  18  33 W7        30.00F
GREYBULL       CLEAR     40  21  46 S6        30.04F
WORLAND        CLEAR     38  23  55 SE7       30.04F WCI  33
SHERIDAN       PTCLDY    38  23  55 S8        30.00F WCI  32
BUFFALO        PTCLDY    35  19  52 S9        30.02F WCI  28
GILLETTE       PTCLDY    35  20  54 SW9       30.02F WCI  28
HULETT         FAIR     N/A N/A N/A CALM      30.02
NEWCASTLE      FAIR      36  16  44 CALM      30.06

$$
WYZ014>020-022>026-101>103-150300-
CENTRAL WYOMING

CITY           SKY/WX    TMP DP  RH WIND       PRES   REMARKS
BIG PINEY      CLEAR     38  11  32 N8        30.15F WCI  32
PINEDALE       CLEAR     32  18  55 W3        30.16F
DUBOIS         FAIR      36   5  27 NW12G26   30.07S WCI  27
LANDER         CLEAR     40  18  41 CALM      30.04F
RIVERTON       CLEAR     42  12  29 CALM      30.06F
CASPER         CLEAR     35  20  54 SW5       30.05F WCI  31
DOUGLAS        CLEAR     31  24  75 CALM      30.07F

$$
WYZ021-027>030-104>119-150300-
SOUTHERN WYOMING

CITY           SKY/WX    TMP DP  RH WIND       PRES   REMARKS
EVANSTON       PTCLDY    39  11  31 W13       30.20S WCI  31
KEMMERER       CLEAR     36  10  35 W17       30.17F WCI  25
FORT BRIDGER   FAIR      42   8  24 W13G18    30.20S
ROCK SPRINGS   CLEAR     41   5  22 NW15      30.13S
DIXON          FAIR      34  18  52 S10G16    30.21S WCI  26
RAWLINS        CLEAR     34  17  50 SW15      30.11F WCI  24
SARATOGA       FAIR      32  19  59 SW10      30.14S WCI  24
LARAMIE        CLEAR     26  14  60 W5        30.10S WCI  20
CHEYENNE       CLEAR     31  13  47 SW9       30.09F WCI  23
TORRINGTON     CLEAR     36  20  52 CALM      30.10F
PINE BLUFFS    FAIR      30  23  74 NW6       30.12S WCI  24

$$



USA.gov is the U.S. government's official web portal to all federal, state and local government web resources and services.